CDT,Max TemperatureF,Mean TemperatureF,Min TemperatureF,Max Dew PointF,MeanDew PointF,Min DewpointF,Max Humidity, Mean Humidity, Min Humidity, Max Sea Level PressureIn, Mean Sea Level PressureIn, Min Sea Level PressureIn, Max VisibilityMiles, Mean VisibilityMiles, Min VisibilityMiles, Max Wind SpeedMPH, Mean Wind SpeedMPH, Max Gust SpeedMPH,PrecipitationIn, CloudCover, Events, WindDirDegrees
2013-4-1,55,48,41,39,38,36,87,73,47,30.13,30.04,29.97,10,10,10,14,2,17,0.00,0,,54
2013-4-2,39,37,35,36,33,28,87,83,70,30.23,30.19,30.16,10,10,9,16,12,22,0.16,8,,77
2013-4-3,50,44,37,37,25,21,81,51,34,30.23,30.18,30.14,10,10,10,24,10,34,0.09,7,,80
2013-4-4,55,47,39,37,33,30,81,61,38,30.14,30.10,30.05,10,10,10,12,4,21,0.00,6,,20
2013-4-5,69,50,30,37,33,27,87,52,23,30.20,30.10,29.98,10,10,7,10,2,,0.00,0,,189
2013-4-6,73,62,51,46,41,34,59,47,35,29.98,29.89,29.81,10,10,10,25,11,33,0.00,0,,197
2013-4-7,75,62,48,55,51,45,88,65,47,29.93,29.85,29.76,10,10,10,18,8,28,0.00,4,,184
2013-4-8,71,66,60,59,56,52,82,70,57,29.82,29.77,29.73,10,10,10,21,10,25,0.22,7,Thunderstorm,171
2013-4-9,80,71,62,61,57,54,73,63,50,29.79,29.75,29.71,10,10,10,20,12,24,0.00,6,,165
2013-4-10,73,55,37,63,43,34,93,84,65,29.87,29.81,29.74,10,8,2,17,11,24,0.73,8,Thunderstorm,302
2013-4-11,51,42,33,34,30,28,87,69,43,29.87,29.81,29.74,10,9,2,18,10,23,0.00,4,,286
2013-4-12,55,45,35,36,31,27,81,59,41,30.02,29.92,29.79,10,10,10,16,6,22,0.00,0,,297
2013-4-13,69,55,41,46,39,32,81,59,38,30.05,29.95,29.80,10,10,10,16,4,22,0.01,2,,151
2013-4-14,78,66,53,50,46,43,67,48,32,29.79,29.66,29.55,10,10,10,21,12,33,0.00,0,,177
2013-4-15,78,68,55,63,56,48,82,67,54,29.83,29.74,29.68,10,10,7,16,8,26,0.00,5,,136
2013-4-16,78,64,51,63,54,46,88,76,54,29.98,29.92,29.83,10,10,8,14,8,20,0.00,5,,43
2013-4-17,82,70,59,66,61,54,88,70,54,29.95,29.83,29.64,10,10,4,22,10,28,0.00,3,,152
2013-4-18,75,56,37,64,43,27,94,77,61,29.99,29.77,29.56,10,9,2,21,13,28,3.85,8,Thunderstorm,288
2013-4-19,53,43,33,28,26,23,70,52,35,30.09,30.05,29.97,10,10,10,18,12,28,0.00,2,,279
2013-4-20,66,50,35,36,33,27,81,50,28,30.20,30.13,30.09,10,10,10,12,4,23,0.00,0,,172
2013-4-21,69,58,48,41,37,34,66,48,30,30.26,30.19,30.12,10,10,10,20,9,25,0.00,1,,150
2013-4-22,71,58,44,45,39,36,76,51,33,30.19,30.04,29.91,10,10,10,16,8,22,0.00,1,,147
2013-4-23,60,48,37,52,43,32,93,76,52,30.11,29.95,29.81,10,8,2,15,9,20,0.06,7,Thunderstorm,13
2013-4-24,53,44,35,34,29,25,93,62,35,30.31,30.22,30.11,10,10,5,16,9,20,0.00,3,,321
2013-4-25,69,50,30,36,30,27,86,48,23,30.37,30.29,30.21,10,10,10,12,3,,0.00,0,,167
2013-4-26,57,52,48,48,44,34,88,76,41,30.33,30.18,30.11,10,10,5,20,10,30,0.61,8,Thunderstorm,116
2013-4-27,57,54,51,54,50,46,94,89,82,30.11,30.03,29.94,10,6,1,17,7,25,0.61,8,Thunderstorm,303
2013-4-28,73,62,50,52,48,45,88,66,41,30.03,29.97,29.88,10,9,5,8,3,,0.00,3,,251
2013-4-29,82,66,51,61,53,46,88,59,37,29.92,29.85,29.78,10,10,10,16,8,23,0.00,0,,188
2013-4-30,80,68,57,55,50,45,82,52,28,29.88,29.84,29.81,10,10,10,16,8,24,0.00,0,,170